GFSNE_850_temp_270.txt.gz
Temp
15 15 15 15 15 15 15 15 14 14 14 14 15 16 16 17 17 17 17 16 16 16 15 15 15 14 14 14 14 13 13 13 11 11 11 11 10 8
11 11 14 15 15 15 15 15 15 14 13 14 14 14 14 15 16 16 15 15 15 15 15 14 14 14 14 14 13 12 12 11 11 10 10 10 9 7
9 9 8 9 13 14 15 14 14 14 14 14 14 14 14 14 14 15 15 14 15 15 14 14 14 13 13 13 12 12 12 11 11 10 9 9 8 6
11 11 11 8 7 11 12 13 14 14 13 13 14 14 14 14 13 13 13 13 13 13 13 14 13 13 13 12 12 12 11 10 9 8 8 7 6 6
8 8 10 10 10 9 8 10 11 13 13 13 12 13 14 14 13 13 13 13 12 13 13 13 13 13 13 12 11 11 11 10 9 7 7 7 6 5
6 5 6 7 7 8 9 9 9 10 11 12 11 12 13 13 13 13 13 13 13 13 13 12 12 12 11 11 11 10 9 9 9 8 6 6 6 5
5 5 5 5 4 4 5 7 7 8 9 10 11 10 12 11 12 12 11 12 12 11 11 11 11 11 12 11 9 8 8 9 8 6 6 6 4 5
4 4 4 5 5 5 6 5 6 6 7 7 7 8 9 9 9 10 11 11 11 10 10 9 9 8 10 9 8 8 7 7 7 5 4 3 3 3
2 3 3 3 4 4 6 6 5 5 6 6 6 7 8 8 9 7 8 8 8 9 9 9 8 8 7 8 6 7 4 6 4 4 4 3 3 3
2 1 1 2 3 3 3 5 5 5 5 5 6 7 6 6 6 8 8 7 6 8 8 8 7 8 7 6 7 6 4 3 3 2 2 2 2 2
-0 0 -0 0 1 2 3 3 5 4 4 5 6 6 5 6 7 8 8 8 8 7 6 6 6 6 4 4 5 3 1 -0 1 1 2 0 1 1
-1 -1 -2 -3 -1 -0 -0 1 2 3 4 4 5 5 6 6 6 7 7 7 7 7 8 6 6 5 4 3 1 1 -2 -2 -1 -1 -0 -0 1 -1
-3 -2 -3 -4 -5 -5 -3 -3 -1 1 3 3 4 4 5 5 5 5 6 6 6 5 4 5 5 5 3 3 1 -1 -2 -3 -2 -1 -2 -2 -3 -2
-5 -4 -4 -4 -4 -4 -4 -3 -1 -1 0 1 2 3 4 3 3 4 5 5 4 4 4 4 4 3 3 1 -0 -3 -3 -4 -3 -3 -3 -2 -2 -2
-5 -5 -5 -5 -5 -4 -3 -3 -2 -2 -1 -1 0 1 2 1 3 3 4 3 2 3 3 3 3 2 1 1 1 -1 -4 -5 -5 -4 -3 -3 -2 -3
-5 -5 -5 -5 -5 -5 -5 -4 -4 -4 -4 -4 -2 -1 1 1 0 2 2 1 1 2 2 1 1 1 0 -0 -1 -1 -4 -4 -5 -4 -4 -4 -3 -3
-6 -6 -5 -6 -6 -5 -5 -5 -6 -5 -5 -5 -4 -3 -2 -1 -0 0 0 0 0 0 1 0 -0 -1 -2 -2 -2 -3 -5 -5 -5 -5 -4 -4 -4 -4
-6 -6 -6 -6 -6 -6 -6 -6 -5 -6 -5 -5 -4 -4 -3 -2 -1 -0 -0 -0 -1 -1 -1 -1 -2 -3 -3 -5 -5 -4 -5 -5 -6 -5 -5 -4 -5 -5
-6 -6 -6 -6 -6 -5 -5 -5 -5 -5 -5 -5 -5 -4 -3 -2 -2 -2 -1 -1 -2 -2 -2 -2 -3 -3 -3 -5 -7 -6 -5 -6 -6 -6 -6 -5 -5 -6
-7 -7 -6 -6 -6 -6 -6 -5 -5 -4 -5 -5 -5 -4 -3 -2 -2 -2 -2 -2 -2 -2 -3 -4 -4 -4 -3 -5 -7 -7 -6 -5 -6 -6 -6 -6 -6 -7
-7 -7 -7 -7 -6 -6 -6 -6 -5 -5 -5 -5 -4 -4 -3 -3 -2 -2 -2 -2 -3 -3 -4 -5 -5 -5 -4 -5 -6 -8 -8 -7 -6 -6 -7 -7 -7 -8
-7 -7 -7 -7 -7 -7 -6 -5 -5 -5 -4 -4 -4 -4 -3 -3 -2 -2 -2 -3 -4 -4 -4 -5 -6 -6 -6 -5 -7 -8 -8 -8 -8 -8 -8 -7 -8 -8
-7 -7 -7 -7 -7 -6 -6 -5 -5 -5 -5 -4 -4 -3 -3 -3 -2 -2 -3 -4 -4 -5 -5 -6 -6 -6 -6 -6 -7 -8 -8 -9 -9 -9 -9 -9 -8 -8

GFSNE_850_temp_273.txt.gz
Temp
12 11 10 11 11 12 11 12 12 12 13 14 14 14 15 16 16 16 16 16 17 16 16 16 16 15 15 15 14 14 14 14 14 13 12 11 10 10
10 9 10 11 11 12 11 10 11 12 12 13 13 14 15 15 15 15 15 16 16 16 16 15 15 15 14 14 14 14 14 13 13 12 12 11 10 10
9 9 10 10 10 11 11 11 10 9 11 10 12 13 14 15 14 14 14 14 15 15 15 15 15 14 14 14 14 14 14 13 13 12 10 10 10 9
7 7 7 9 9 10 11 10 9 11 11 10 11 10 12 13 14 14 14 13 13 14 14 14 14 14 13 13 13 13 13 13 12 11 10 9 9 8
4 4 5 5 6 7 7 9 9 11 10 9 11 11 9 12 12 13 13 13 13 13 12 12 12 12 12 12 12 12 12 12 12 10 8 8 8 7
3 3 3 2 2 4 4 5 5 6 7 7 9 11 10 11 12 11 11 12 11 11 10 11 10 11 11 11 11 11 11 12 9 8 8 7 7 7
3 3 3 2 2 2 3 4 4 5 5 5 6 7 8 9 10 11 11 12 11 11 12 10 11 11 11 10 9 10 9 8 8 7 7 6 5 6
2 2 2 2 3 3 3 3 3 4 5 5 5 6 7 7 7 8 9 10 10 11 10 10 10 11 10 9 9 7 7 7 6 5 5 4 3 3
1 0 0 1 2 2 3 3 3 3 3 4 4 4 6 7 7 6 7 7 6 7 8 8 8 8 7 6 7 7 4 7 7 4 4 4 3 2
-2 -1 -0 -1 -1 0 2 3 3 3 3 3 3 4 4 5 5 6 6 6 7 6 6 6 7 8 6 5 5 6 5 5 5 4 1 2 2 1
-2 -3 -3 -2 -2 -3 -1 1 2 3 2 2 2 3 4 5 5 5 6 6 6 7 6 5 6 6 6 4 4 5 4 5 3 2 -0 1 1 -0
-4 -3 -4 -4 -4 -4 -4 -3 -1 1 2 3 2 2 2 2 4 5 5 5 3 4 6 4 4 4 4 4 4 2 0 -0 0 -0 -1 -1 -1 -2
-5 -4 -4 -5 -5 -5 -5 -5 -4 -3 -0 0 2 3 3 2 2 3 4 4 4 4 3 3 4 4 4 3 2 0 -2 -2 -2 -2 -1 -2 -2 -2
-5 -5 -5 -5 -5 -5 -5 -5 -6 -5 -3 -2 -0 1 2 2 2 2 3 4 4 3 2 2 2 3 3 2 0 -1 -3 -3 -4 -3 -3 -3 -2 -3
-6 -6 -6 -5 -5 -5 -5 -5 -6 -6 -6 -5 -4 -2 -0 1 1 0 1 3 3 1 2 2 2 2 2 1 1 -0 -3 -4 -5 -4 -3 -3 -3 -3
-6 -6 -5 -5 -6 -6 -6 -6 -6 -6 -6 -6 -6 -5 -4 -4 -3 -2 -0 0 1 1 1 1 1 1 0 -0 -1 -1 -3 -4 -5 -5 -5 -5 -4 -4
-7 -6 -6 -6 -6 -6 -6 -6 -6 -6 -6 -6 -6 -6 -5 -4 -3 -3 -2 -1 -1 -0 -0 -0 -0 -1 -1 -1 -2 -3 -4 -5 -6 -6 -5 -5 -5 -5
-7 -7 -7 -7 -7 -7 -6 -6 -5 -5 -5 -5 -6 -6 -5 -5 -3 -3 -2 -2 -1 -1 -1 -1 -1 -2 -2 -4 -4 -4 -5 -5 -6 -6 -6 -5 -6 -6
-7 -8 -7 -7 -7 -7 -7 -6 -6 -6 -5 -5 -5 -5 -5 -4 -4 -3 -2 -2 -2 -2 -2 -2 -3 -3 -3 -5 -7 -6 -4 -6 -6 -6 -6 -5 -6 -6
-8 -7 -7 -7 -7 -7 -7 -7 -6 -6 -5 -5 -5 -5 -5 -4 -4 -3 -3 -2 -2 -2 -2 -3 -4 -4 -3 -4 -7 -7 -7 -6 -6 -6 -6 -6 -6 -7
-8 -8 -8 -8 -7 -7 -7 -7 -7 -6 -6 -5 -5 -5 -5 -4 -4 -3 -3 -3 -2 -3 -3 -4 -5 -5 -4 -5 -6 -8 -8 -7 -6 -6 -7 -7 -7 -8
-7 -8 -8 -7 -7 -7 -7 -7 -7 -6 -6 -5 -5 -4 -4 -4 -4 -3 -3 -3 -4 -3 -4 -5 -5 -6 -6 -5 -7 -8 -8 -8 -8 -8 -8 -7 -7 -8
-7 -7 -7 -7 -7 -7 -7 -7 -6 -6 -6 -5 -5 -4 -4 -4 -4 -4 -4 -4 -4 -5 -5 -6 -6 -6 -6 -6 -7 -8 -8 -9 -9 -9 -8 -8 -8 -8

GFSNE_850_temp_276.txt.gz
Temp
9 9 8 9 11 11 10 11 9 9 10 11 12 13 13 14 12 13 13 14 16 16 17 17 16 16 16 16 15 15 15 14 14 14 14 13 13 11
7 7 10 9 9 10 9 9 10 9 9 10 12 12 13 14 13 13 12 13 13 14 15 16 16 16 15 15 15 15 14 13 13 14 13 14 13 12
6 6 6 6 6 7 7 9 9 8 9 10 11 14 12 13 13 13 14 12 12 13 14 14 15 15 15 14 14 14 13 13 13 13 13 13 13 10
5 6 6 6 6 6 6 6 6 7 7 8 9 9 11 13 12 13 13 13 12 13 13 12 13 13 13 13 13 13 12 12 12 12 12 12 11 9
4 4 4 4 5 6 6 4 5 5 5 5 5 7 9 9 12 11 12 11 13 10 12 12 13 12 12 12 11 11 11 12 11 11 11 11 9 9
2 2 3 2 2 3 4 4 4 4 4 5 5 6 5 7 9 9 10 10 12 11 12 10 12 11 12 10 10 11 11 10 11 11 10 9 8 7
1 1 1 0 0 1 1 2 2 3 3 4 4 5 5 6 6 7 8 9 10 9 10 11 11 10 10 10 10 10 10 9 8 7 9 8 7 6
-0 1 0 0 0 1 1 1 1 1 1 2 3 3 4 4 4 5 5 5 7 9 9 10 9 9 9 9 8 9 7 8 6 5 6 5 5 5
-1 -1 -1 -1 -1 -1 0 1 1 1 0 0 1 2 3 4 4 4 3 3 4 5 5 6 6 6 5 5 5 5 5 5 5 5 5 3 3 2
-3 -3 -2 -2 -2 -4 -4 -1 0 0 0 0 -0 1 1 2 2 3 3 4 4 4 4 4 5 5 5 2 4 3 3 3 3 3 3 2 1 1
-4 -3 -3 -4 -4 -3 -3 -4 -3 -1 -1 -1 -0 0 1 1 1 2 3 3 3 4 4 4 5 5 5 5 2 4 2 1 1 0 -0 1 0 0
-5 -4 -4 -4 -4 -5 -5 -5 -4 -4 -4 -1 -0 1 1 1 0 1 2 2 2 1 3 4 4 4 3 3 2 2 1 1 -0 0 -0 -0 -1 -2
-6 -5 -5 -4 -4 -4 -5 -6 -6 -5 -5 -6 -4 -2 -0 1 1 0 0 1 2 2 2 2 2 3 3 3 3 2 0 -1 -1 -1 -1 -1 -2 -3
-7 -7 -6 -6 -5 -5 -5 -6 -7 -7 -7 -6 -6 -5 -3 -3 -1 -1 -0 -0 1 1 1 2 2 2 3 2 1 0 -1 -3 -3 -2 -2 -2 -3 -3
-7 -7 -7 -6 -6 -7 -6 -6 -7 -7 -6 -6 -6 -6 -6 -5 -5 -4 -3 -2 -0 0 0 1 2 1 2 1 1 -0 -2 -3 -4 -4 -4 -4 -4 -4
-7 -8 -7 -7 -7 -7 -7 -7 -6 -6 -6 -6 -5 -6 -6 -6 -5 -5 -4 -3 -2 -1 -0 0 1 0 1 0 -0 -1 -2 -3 -5 -5 -4 -4 -4 -4
-8 -8 -8 -8 -7 -7 -7 -7 -7 -6 -6 -6 -6 -5 -5 -6 -6 -5 -4 -3 -2 -2 -1 -0 -0 -1 -1 -1 -2 -2 -4 -5 -5 -5 -5 -5 -5 -5
-8 -8 -8 -7 -7 -7 -7 -7 -7 -7 -6 -6 -6 -5 -5 -5 -5 -4 -4 -3 -2 -2 -1 -1 -1 -2 -2 -3 -4 -4 -5 -5 -6 -6 -6 -5 -6 -6
-8 -8 -8 -8 -7 -7 -8 -7 -7 -7 -7 -6 -6 -5 -5 -5 -5 -4 -4 -3 -3 -2 -2 -1 -2 -2 -2 -3 -7 -6 -5 -6 -7 -7 -6 -5 -6 -6
-8 -8 -8 -8 -7 -7 -7 -7 -7 -7 -7 -7 -6 -5 -5 -5 -5 -4 -4 -3 -3 -3 -3 -3 -3 -3 -3 -4 -6 -7 -7 -6 -6 -7 -6 -6 -6 -7
-8 -8 -8 -7 -7 -7 -7 -7 -7 -7 -7 -7 -6 -5 -5 -5 -4 -4 -4 -4 -3 -3 -4 -4 -4 -4 -4 -5 -6 -8 -8 -7 -7 -6 -7 -7 -7 -8
-8 -8 -7 -7 -7 -7 -7 -7 -7 -7 -7 -7 -6 -6 -5 -4 -4 -4 -4 -4 -4 -4 -4 -5 -5 -5 -5 -5 -7 -8 -9 -8 -8 -8 -8 -7 -7 -8
-8 -7 -7 -7 -7 -7 -7 -7 -7 -7 -7 -6 -6 -5 -5 -5 -4 -4 -5 -4 -4 -5 -5 -6 -6 -6 -6 -7 -7 -8 -9 -9 -9 -8 -8 -8 -7 -8

GFSNE_850_temp_279.txt.gz
Temp
7 7 7 9 8 10 10 9 9 8 9 11 10 15 15 15 14 13 14 14 15 16 15 16 15 15 16 16 16 16 16 16 16 15 15 14 12 13
7 6 5 5 6 5 6 7 7 8 8 9 9 9 9 10 12 12 13 13 14 14 14 14 15 14 15 15 16 15 16 16 16 15 15 13 13 13
5 5 5 4 5 5 4 5 5 6 6 6 7 7 8 8 8 8 11 12 11 13 12 13 13 13 14 15 15 15 14 15 15 15 14 13 12 12
4 4 4 4 3 3 4 4 4 4 4 4 5 5 6 6 7 8 9 10 11 12 12 12 13 13 14 13 13 13 14 13 14 13 12 12 11 12
3 3 3 2 2 2 2 2 3 3 3 3 2 3 4 5 5 6 7 8 8 9 11 11 13 13 13 11 13 13 12 11 11 11 11 11 11 11
1 1 1 1 0 0 0 -0 1 1 1 1 2 1 3 4 4 4 5 6 7 8 8 9 10 11 11 13 11 10 13 12 11 10 10 10 10 10
0 -0 -0 0 -0 -1 -1 -1 -1 -0 1 1 1 0 1 2 2 3 3 4 6 6 6 7 8 9 9 10 9 11 10 10 12 10 9 9 9 8
-3 -3 -2 -1 -1 -1 -2 -2 -2 -3 -4 -3 -3 -2 -1 1 2 2 3 3 2 5 4 4 4 6 7 9 8 8 8 9 8 7 6 6 5 4
-4 -4 -4 -4 -3 -3 -2 -3 -3 -3 -4 -4 -5 -4 -4 -4 -2 1 2 2 2 4 3 3 3 4 3 3 3 3 4 4 4 4 3 4 3 3
-5 -3 -3 -3 -4 -4 -4 -4 -4 -4 -3 -4 -5 -5 -5 -4 -3 -2 -0 1 2 3 2 3 2 2 2 2 1 2 2 1 1 2 2 2 1 1
-4 -5 -5 -4 -4 -6 -6 -5 -6 -5 -4 -4 -4 -3 -4 -3 -2 -2 -1 -0 1 2 2 1 2 2 2 1 0 1 0 1 0 0 -0 1 1 1
-5 -5 -5 -4 -4 -5 -7 -7 -7 -7 -7 -6 -4 -4 -4 -4 -2 -3 -3 -2 -1 -0 2 2 3 2 1 1 0 -0 -1 -1 -1 -1 -1 -1 -0 -1
-6 -6 -7 -7 -6 -6 -6 -7 -7 -7 -7 -7 -6 -7 -6 -6 -5 -4 -4 -4 -3 -2 0 1 2 2 2 2 0 -2 -2 -2 -1 -2 -2 -2 -3 -3
-7 -7 -7 -7 -7 -7 -8 -7 -7 -7 -6 -6 -6 -5 -5 -6 -6 -6 -5 -4 -4 -3 -0 -0 0 1 1 1 0 -1 -2 -2 -3 -3 -3 -3 -4 -4
-7 -8 -8 -7 -8 -7 -7 -7 -7 -7 -6 -6 -6 -6 -5 -5 -5 -6 -5 -5 -4 -3 -1 -0 0 0 1 1 1 -0 -1 -4 -4 -4 -4 -4 -4 -4
-8 -8 -8 -8 -7 -7 -7 -7 -7 -7 -7 -6 -6 -6 -5 -5 -5 -5 -5 -5 -4 -3 -2 -1 -0 -0 -0 -0 -1 -1 -3 -3 -5 -5 -5 -5 -5 -4
-8 -8 -7 -7 -7 -7 -7 -7 -7 -7 -7 -6 -6 -6 -6 -5 -5 -5 -5 -5 -4 -3 -2 -1 -1 -1 -1 -1 -1 -2 -3 -4 -5 -5 -5 -5 -5 -5
-8 -7 -7 -7 -7 -7 -7 -7 -7 -7 -7 -7 -7 -6 -6 -6 -5 -5 -5 -4 -4 -3 -3 -2 -2 -2 -2 -3 -3 -3 -5 -5 -6 -6 -6 -5 -6 -5
-8 -8 -8 -8 -8 -8 -7 -7 -7 -7 -7 -7 -7 -7 -6 -6 -5 -5 -5 -4 -4 -4 -3 -3 -3 -2 -2 -4 -7 -6 -5 -6 -7 -7 -6 -6 -6 -6
-8 -8 -8 -8 -8 -8 -7 -7 -7 -7 -7 -7 -7 -7 -6 -6 -5 -5 -5 -4 -4 -4 -4 -4 -4 -3 -3 -4 -6 -7 -7 -7 -7 -7 -7 -6 -7 -7
-8 -8 -8 -8 -8 -7 -7 -7 -7 -7 -7 -7 -7 -7 -6 -5 -5 -5 -4 -4 -4 -4 -5 -5 -5 -4 -4 -4 -6 -8 -8 -7 -7 -7 -7 -7 -7 -7
-8 -8 -8 -8 -7 -8 -8 -8 -7 -7 -7 -7 -7 -6 -6 -5 -5 -5 -4 -5 -5 -5 -5 -5 -5 -5 -6 -7 -8 -8 -8 -8 -7 -7 -7 -7 -7 -8
-8 -8 -7 -7 -7 -7 -7 -7 -7 -7 -7 -7 -7 -6 -5 -5 -5 -4 -5 -5 -5 -5 -5 -6 -7 -7 -8 -8 -9 -9 -9 -9 -8 -8 -8 -7 -7 -7